Location: ??????????
(54.8537°N, 38.8755°E)
Time: 02:19:16
(UTC+00:00)

Vanguard 2 Rocket - Pass Details

Date: 21 September 2024
Orbit: 553 x 3298 km, 32.9° (Epoch: 10 October)

Event Time Altitude Azimuth Distance (km) Brightness Sun altitude
Rises 21:41:31 0° 215° (SW) 3,905 - -34.7°
Reaches altitude 10° 21:44:56 10° 196° (SSW) 3,337 - -34.6°
Maximum altitude 21:50:23 18° 157° (SSE) 3,345 - -34.5°
Exits shadow 21:56:16 12° 126° (SE) 4,388 10.1 -34.3°
Drops below altitude 10° 21:57:42 10° 121° (ESE) 4,721 10.3 -34.3°
Sets 22:04:02 0° 107° (ESE) 6,291 11.2 -34.1°
